Beaufort MCAS, SC

2:14 AM EDT on July 27, 2017 (GMT -0400)
Beaufort Marine Corps Air Station

Weather History for KNBC - October, 2012

Change the Weather History Date:

Monday, October 22, 2012

  Actual Average Record
Temperature  
Mean Temperature 62 °F -  
Max Temperature 77 °F 76 °F 89 °F (1931)
Min Temperature 46 °F 56 °F 38 °F (1954)
Degree Days  
Heating Degree Days 4    
Growing Degree Days 12 (Base 50)    
Moisture  
Dew Point 49 °F    
Average Humidity 75    
Maximum Humidity 94    
Minimum Humidity 32    
Precipitation  
Precipitation 0.00 in - - ()
Sea Level Pressure  
Sea Level Pressure 30.17 in    
Wind  
Wind Speed 2 mph (NE)    
Max Wind Speed 8 mph    
Max Gust Speed -    
Visibility 8 miles    
Events Fog    
Averages and records for this station are not official NWS values.
T = Trace of Precipitation, MM = Missing Value Source: NWS Daily Summary

Daily Weather History Graph

Daily Weather History Graph

Search for Another Location

Airport or City:

Trip Planner

Search our weather history database for the weather conditions in past years. The results will help you decide how hot, cold, wet, or windy it might be!

Date:

Astronomy

Oct. 22, 2012 Rise Set
Actual Time 7:32 AM EDT 6:41 PM EDT
Civil Twilight 7:07 AM EDT 7:06 PM EDT
Nautical Twilight 6:38 AM EDT 7:35 PM EDT
Astronomical Twilight 6:10 AM EDT 8:03 PM EDT
Moon 2:27 PM EDT (10/22) 12:40 AM EDT (10/22)
Length of Visible Light 11h 59m
Length of Day
11h 09m
First Quarter, 56% of the Moon is Illuminated
Oct 22
First Quarter
Oct 29
Full
Nov 6
Last Quarter
Nov 13
New
Nov 20
First Quarter

Hourly Weather History & Observations

Time (EDT) Temp. Dew Point Humidity Pressure Visibility Wind Dir Wind Speed Gust Speed Precip Events Conditions
12:56 AM 54.0 °F 50.0 °F 86% 30.15 in 10.0 mi Calm Calm - N/A   Clear
1:56 AM 53.1 °F 50.0 °F 89% 30.15 in 10.0 mi Calm Calm - N/A   Clear
2:56 AM 52.0 °F 48.9 °F 89% 30.15 in 10.0 mi Calm Calm - N/A   Clear
3:03 AM 51.8 °F 50.0 °F 94% 30.15 in 1.2 mi Calm Calm - N/A   Clear
3:10 AM 51.8 °F 48.2 °F 88% 30.15 in 1.0 mi Calm Calm - N/A   Clear
3:13 AM 51.8 °F 48.2 °F 88% 30.15 in 2.5 mi Calm Calm - N/A   Clear
3:20 AM 51.8 °F 48.2 °F 88% 30.15 in 10.0 mi Calm Calm - N/A   Clear
3:56 AM 52.0 °F 48.9 °F 89% 30.15 in 10.0 mi Calm Calm - N/A   Clear
4:05 AM 53.6 °F 51.8 °F 94% 30.14 in 0.8 mi NNE 3.5 mph - N/A   Mist
4:13 AM 51.8 °F 50.0 °F 94% 30.14 in 0.5 mi NNE 3.5 mph - N/A Fog Fog
4:15 AM 51.8 °F 50.0 °F 94% 30.14 in 1.0 mi NNE 3.5 mph - N/A   Clear
4:17 AM 50.0 °F 48.2 °F 94% 30.14 in 2.0 mi NNE 4.6 mph - N/A   Clear
4:24 AM 50.0 °F 48.2 °F 94% 30.14 in 9.0 mi NE 4.6 mph - N/A   Clear
4:56 AM 53.1 °F 50.0 °F 89% 30.15 in 10.0 mi NNE 3.5 mph - N/A   Clear
5:56 AM 53.1 °F 50.0 °F 89% 30.17 in 10.0 mi Calm Calm - N/A   Clear
6:56 AM 46.9 °F 45.0 °F 93% 30.19 in 10.0 mi NNE 5.8 mph - N/A   Partly Cloudy
7:56 AM 51.1 °F 48.9 °F 92% 30.21 in 10.0 mi NNW 3.5 mph - N/A   Clear
8:56 AM 57.9 °F 51.1 °F 78% 30.22 in 10.0 mi NNE 4.6 mph - N/A   Clear
9:56 AM 64.0 °F 52.0 °F 65% 30.23 in 10.0 mi NE 4.6 mph - N/A   Clear
10:56 AM 69.1 °F 46.0 °F 44% 30.24 in 10.0 mi NE 6.9 mph - N/A   Clear
11:56 AM 71.1 °F 42.1 °F 35% 30.23 in 10.0 mi East 8.1 mph - N/A   Clear
12:56 PM 73.9 °F 42.1 °F 32% 30.21 in 10.0 mi East 8.1 mph - N/A   Clear
1:56 PM 75.0 °F 44.1 °F 33% 30.19 in 10.0 mi ESE 8.1 mph - N/A   Clear
2:56 PM 77.0 °F 45.0 °F 32% 30.16 in 10.0 mi Variable 5.8 mph - N/A   Clear
3:56 PM 75.0 °F 45.0 °F 34% 30.14 in 10.0 mi ESE 5.8 mph - N/A   Clear
4:56 PM 73.9 °F 46.0 °F 37% 30.14 in 10.0 mi East 5.8 mph - N/A   Clear
5:56 PM 71.1 °F 50.0 °F 47% 30.14 in 10.0 mi ESE 5.8 mph - N/A   Clear
6:56 PM 66.0 °F 54.0 °F 65% 30.16 in 10.0 mi SE 3.5 mph - N/A   Clear
7:56 PM 60.1 °F 52.0 °F 75% 30.17 in 10.0 mi Calm Calm - N/A   Clear
8:56 PM 60.1 °F 54.0 °F 80% 30.18 in 10.0 mi Calm Calm - N/A   Clear
9:56 PM 57.0 °F 52.0 °F 83% 30.19 in 10.0 mi Calm Calm - N/A   Clear
10:56 PM 55.9 °F 53.1 °F 90% 30.20 in 10.0 mi Calm Calm - N/A   Clear
11:56 PM 55.0 °F 52.0 °F 89% 30.20 in 10.0 mi Calm Calm - N/A   Clear